This demonstration page uses our WeatherBlox Daily Observations layout. Learn more.

Hourly Observations for March 31, 2016

Temp ( °F °C ) Dew Point ( °F °C ) Humidity (%) Winds ( mph kmh ) Pressure ( in mb ) Visibility ( mi km ) Precip ( " mm )
12:15 am 00:15 Clear 55 13 41 5 59 59 S 9 15 30.12 1020 10 16.09344 0 0
12:35 am 00:35 Clear 55 13 41 5 59 59 SSE 10 17 30.12 1020 10 16.09344 0 0
12:55 am 00:55 Clear 55 13 39 4 55 55 S 12 19 30.09 1019 10 16.09344 0 0
1:15 am 01:15 Clear 54 12 41 5 63 63 SSE 10 17 30.09 1019 10 16.09344 0 0
1:35 am 01:35 Clear 54 12 41 5 63 63 S 12 19 30.09 1019 10 16.09344 0 0
1:55 am 01:55 Clear 54 12 39 4 58 58 S 13 20 30.06 1018 10 16.09344 0 0
2:15 am 02:15 Clear 54 12 41 5 63 63 S 13 20 30.06 1018 10 16.09344 0 0
2:35 am 02:35 Clear 54 12 41 5 63 63 S 13 20 30.06 1018 10 16.09344 0 0
2:55 am 02:55 Clear 54 12 41 5 63 63 S 15 24 30.03 1017 10 16.09344 0 0
3:15 am 03:15 Clear 54 12 41 5 63 63 S 13 20 30.03 1017 10 16.09344 0 0
3:35 am 03:35 Clear 54 12 41 5 63 63 S 10 17 30.03 1017 10 16.09344 0 0
3:55 am 03:55 Clear 54 12 43 6 67 67 S 15 24 30.03 1017 10 16.09344 0 0
4:15 am 04:15 Clear 55 13 45 7 67 67 S 14 22 30 1016 10 16.09344 0 0
4:35 am 04:35 Clear 55 13 46 8 72 72 SSW 17 28 30 1016 10 16.09344 0 0
4:55 am 04:55 Clear 57 14 46 8 67 67 S 18 30 30 1016 10 16.09344 0 0
5:15 am 05:15 Clear 57 14 46 8 67 67 SSW 20 31 30 1016 10 16.09344 0 0
5:35 am 05:35 Clear 57 14 46 8 67 67 S 17 28 30 1016 10 16.09344 0 0
5:55 am 05:55 Clear 55 13 48 9 77 77 S 16 26 30 1016 10 16.09344 0 0
6:15 am 06:15 Clear 55 13 48 9 77 77 SSW 18 30 29.97 1015 10 16.09344 0 0
6:35 am 06:35 Clear 55 13 50 10 82 82 S 21 33 29.97 1015 10 16.09344 0 0
6:55 am 06:55 Sunny 55 13 50 10 82 82 S 17 28 29.97 1015 10 16.09344 0 0
7:15 am 07:15 Sunny 55 13 50 10 82 82 S 20 31 29.97 1015 10 16.09344 0 0
7:35 am 07:35 Sunny 57 14 50 10 77 77 S 18 30 29.97 1015 10 16.09344 0 0
7:55 am 07:55 Sunny 57 14 52 11 82 82 S 18 30 29.97 1015 10 16.09344 0 0
8:15 am 08:15 Sunny 59 15 52 11 77 77 S 22 35 29.97 1015 10 16.09344 0 0
8:35 am 08:35 Sunny 59 15 52 11 77 77 S 22 35 29.97 1015 10 16.09344 0 0
8:55 am 08:55 Sunny 61 16 52 11 72 72 S 21 33 29.97 1015 10 16.09344 0 0
9:15 am 09:15 Sunny 61 16 52 11 72 72 SSW 23 37 29.94 1014 10 16.09344 0 0
9:35 am 09:35 Partly Cloudy 63 17 54 12 73 73 S 24 39 29.97 1015 10 16.09344 0 0
9:55 am 09:55 Cloudy 63 17 54 12 73 73 S 22 35 29.94 1014 10 16.09344 0 0
10:15 am 10:15 Cloudy 63 17 54 12 73 73 SSW 24 39 29.94 1014 10 16.09344 0 0
10:35 am 10:35 Cloudy 63 17 54 12 73 73 S 20 31 29.94 1014 10 16.09344 0 0
10:55 am 10:55 Cloudy 63 17 54 12 73 73 SSW 20 31 29.94 1014 10 16.09344 0 0
11:15 am 11:15 Cloudy 64 18 55 13 73 73 SSW 18 30 29.94 1014 10 16.09344 0 0
11:35 am 11:35 Cloudy 64 18 55 13 73 73 SSW 21 33 29.94 1014 10 16.09344 0 0
11:55 am 11:55 Cloudy 66 19 55 13 68 68 SSW 17 28 29.94 1014 10 16.09344 0 0
12:15 pm 12:15 Cloudy 68 20 55 13 64 64 S 22 35 29.91 1013 10 16.09344 0 0
12:35 pm 12:35 Cloudy 70 21 55 13 60 60 SSW 15 24 29.94 1014 10 16.09344 0 0
12:55 pm 12:55 Cloudy 70 21 55 13 60 60 SW 21 33 29.91 1013 10 16.09344 0 0
1:15 pm 13:15 Cloudy 70 21 55 13 60 60 S 17 28 29.91 1013 10 16.09344 0 0
1:35 pm 13:35 Cloudy 70 21 55 13 60 60 SSW 21 33 29.91 1013 10 16.09344 0 0
1:55 pm 13:55 Cloudy 70 21 55 13 60 60 SSW 20 31 29.91 1013 10 16.09344 0 0
2:15 pm 14:15 Mostly Cloudy 72 22 55 13 57 57 S 21 33 29.91 1013 10 16.09344 0 0
2:35 pm 14:35 Mostly Cloudy 72 22 55 13 57 57 SSW 18 30 29.91 1013 10 16.09344 0 0
2:55 pm 14:55 Cloudy 72 22 55 13 57 57 SSW 23 37 29.88 1012 10 16.09344 0 0
3:15 pm 15:15 Cloudy 72 22 55 13 57 57 SSW 20 31 29.88 1012 10 16.09344 0 0
3:35 pm 15:35 Partly Cloudy 72 22 55 13 57 57 S 18 30 29.88 1012 10 16.09344 0 0
3:55 pm 15:55 Mostly Cloudy 72 22 55 13 57 57 SSW 20 31 29.85 1011 10 16.09344 0 0
4:15 pm 16:15 Cloudy 72 22 55 13 57 57 SSW 20 31 29.85 1011 10 16.09344 0 0
4:35 pm 16:35 Partly Cloudy 72 22 55 13 57 57 SSW 22 35 29.83 1010 10 16.09344 0 0
4:55 pm 16:55 Sunny 72 22 55 13 57 57 SSW 21 33 29.83 1010 10 16.09344 0 0
5:15 pm 17:15 Sunny 72 22 54 12 53 53 SSW 22 35 29.83 1010 10 16.09344 0 0
5:35 pm 17:35 Sunny 72 22 54 12 53 53 SSW 18 30 29.83 1010 10 16.09344 0 0
5:55 pm 17:55 Partly Cloudy 72 22 54 12 53 53 S 17 28 29.83 1010 10 16.09344 0 0
6:15 pm 18:15 Cloudy 72 22 54 12 53 53 S 17 28 29.83 1010 10 16.09344 0 0
6:35 pm 18:35 Partly Cloudy 72 22 54 12 53 53 S 17 28 29.8 1009 10 16.09344 0 0
6:55 pm 18:55 Mostly Cloudy 72 22 54 12 53 53 SSW 17 28 29.8 1009 10 16.09344 0 0
7:15 pm 19:15 Cloudy 72 22 54 12 53 53 S 13 20 29.8 1009 10 16.09344 0 0
7:35 pm 19:35 Mostly Cloudy 72 22 54 12 53 53 S 13 20 29.8 1009 10 16.09344 0 0
8:15 pm 20:15 Partly Cloudy 70 21 54 12 57 57 S 10 17 29.8 1009 10 16.09344 0 0
8:35 pm 20:35 Partly Cloudy 70 21 55 13 60 60 S 12 19 29.77 1008 10 16.09344 0 0
8:55 pm 20:55 Partly Cloudy 70 21 55 13 60 60 S 14 22 29.77 1008 10 16.09344 0 0
9:15 pm 21:15 Partly Cloudy 70 21 55 13 60 60 S 12 19 29.77 1008 10 16.09344 0 0
9:35 pm 21:35 Partly Cloudy 70 21 55 13 60 60 S 10 17 29.77 1008 10 16.09344 0 0
9:55 pm 21:55 Mostly Cloudy 70 21 55 13 60 60 S 12 19 29.77 1008 10 16.09344 0 0
10:15 pm 22:15 Partly Cloudy 70 21 55 13 60 60 S 13 20 29.8 1009 10 16.09344 0 0
10:35 pm 22:35 Partly Cloudy 70 21 55 13 60 60 SSW 13 20 29.8 1009 10 16.09344 0 0
10:55 pm 22:55 Clear 70 21 55 13 60 60 S 13 20 29.77 1008 10 16.09344 0 0
11:15 pm 23:15 Clear 70 21 55 13 60 60 S 9 15 29.77 1008 10 16.09344 0 0
11:35 pm 23:35 Clear 68 20 55 13 64 64 S 10 17 29.77 1008 10 16.09344 0 0
11:55 pm 23:55 Clear 68 20 55 13 64 64 S 12 19 29.77 1008 10 16.09344 0 0

Powered by AerisWeather